• In Uzbekistan
  • List of Countries
  • For 7 days
  • Water Temperature
  • Satellite Maps
  • Weather Map
  • Weather Widgets
  • user-avatar
    Login

    Hourly Weather Quebec

    Today, 18 October, Thursday

    Time Temperature Precipitation Wind Pressure Humidity
    00:00 -11°C° 0.1 mm 5 mps 687 mmHg 89%
    01:00 -11°C° 0 mm 5 mps 688 mmHg 90%
    02:00 -11°C° 0.1 mm 5 mps 689 mmHg 89%
    03:00 -11°C° 0.1 mm 5 mps 690 mmHg 88%
    04:00 -11°C° 0.1 mm 5 mps 690 mmHg 88%
    05:00 -12°C° 0 mm 5 mps 691 mmHg 88%
    06:00 -12°C° 0 mm 5 mps 691 mmHg 89%
    07:00 -12°C° 0 mm 4 mps 691 mmHg 89%
    08:00 -12°C° 0.1 mm 5 mps 692 mmHg 86%
    09:00 -11°C° 0.1 mm 5 mps 692 mmHg 82%
    10:00 -11°C° 0.1 mm 6 mps 693 mmHg 78%
    11:00 -10°C° 0.1 mm 6 mps 693 mmHg 77%
    12:00 -10°C° 0.1 mm 6 mps 693 mmHg 75%
    13:00 -9°C° 0.1 mm 6 mps 694 mmHg 74%
    14:00 -8°C° 0.1 mm 5 mps 694 mmHg 75%
    15:00 -10°C° 0.1 mm 5 mps 694 mmHg 77%
    16:00 -9°C° 0.1 mm 4 mps 694 mmHg 79%
    17:00 -9°C° 0.1 mm 3 mps 694 mmHg 83%
    18:00 -10°C° 0.1 mm 3 mps 694 mmHg 87%
    19:00 -10°C° 0.1 mm 2 mps 694 mmHg 92%
    20:00 -10°C° 0.1 mm 2 mps 694 mmHg 92%
    21:00 -10°C° 0.1 mm 2 mps 695 mmHg 93%
    22:00 -12°C° 0.1 mm 3 mps 695 mmHg 94%
    23:00 -10°C° 0 mm 2 mps 694 mmHg 95%

    Tomorrow, 19 October, Friday

    Time Temperature Precipitation Wind Pressure Humidity
    00:00 -12°C° 0 mm 2 mps 694 mmHg 95%
    01:00 -12°C° 0 mm 2 mps 694 mmHg 96%
    02:00 -11°C° 0 mm 1 mps 694 mmHg 96%
    03:00 -11°C° 0 mm 1 mps 693 mmHg 95%
    04:00 -12°C° 0 mm 1 mps 693 mmHg 95%
    05:00 -13°C° 0 mm 2 mps 693 mmHg 94%
    06:00 -13°C° 0 mm 2 mps 692 mmHg 93%
    07:00 -14°C° 0 mm 3 mps 692 mmHg 92%
    08:00 -12°C° 0.1 mm 4 mps 692 mmHg 89%
    09:00 -12°C° 0.1 mm 5 mps 691 mmHg 86%
    10:00 -11°C° 0.1 mm 6 mps 691 mmHg 83%
    11:00 -10°C° 0.2 mm 6 mps 690 mmHg 84%
    12:00 -10°C° 0.2 mm 6 mps 689 mmHg 86%
    13:00 -9°C° 0.2 mm 6 mps 688 mmHg 88%
    14:00 -9°C° 0.5 mm 6 mps 687 mmHg 89%
    15:00 -9°C° 0.5 mm 6 mps 686 mmHg 91%
    16:00 -9°C° 0.5 mm 6 mps 685 mmHg 92%
    17:00 -8°C° 0.7 mm 6 mps 684 mmHg 92%
    18:00 -8°C° 0.7 mm 6 mps 683 mmHg 93%
    19:00 -6°C° 0.7 mm 6 mps 682 mmHg 93%
    20:00 -6°C° 1.1 mm 6 mps 681 mmHg 94%
    21:00 -5°C° 1.1 mm 6 mps 680 mmHg 94%
    22:00 -4°C° 1.1 mm 6 mps 679 mmHg 94%
    23:00 -4°C° 0.9 mm 5 mps 679 mmHg 95%

    Day after tomorrow, 20 October, Saturday

    Time Temperature Precipitation Wind Pressure Humidity
    00:00 -2°C° 0.9 mm 5 mps 678 mmHg 96%
    01:00 -2°C° 0.9 mm 5 mps 677 mmHg 96%
    02:00 -2°C° 0.8 mm 4 mps 676 mmHg 97%
    03:00 -2°C° 0.8 mm 4 mps 676 mmHg 98%
    04:00 0°C° 0.8 mm 3 mps 675 mmHg 99%
    05:00 -1°C° 0.4 mm 4 mps 675 mmHg 99%
    06:00 -1°C° 0.4 mm 4 mps 675 mmHg 99%
    07:00 -2°C° 0.4 mm 4 mps 674 mmHg 99%
    08:00 -2°C° 0.3 mm 4 mps 675 mmHg 98%
    09:00 -2°C° 0.3 mm 5 mps 675 mmHg 97%
    10:00 -2°C° 0.3 mm 5 mps 675 mmHg 97%
    11:00 -3°C° 0.2 mm 6 mps 676 mmHg 95%
    12:00 -4°C° 0.2 mm 6 mps 676 mmHg 94%
    13:00 -4°C° 0.2 mm 6 mps 677 mmHg 93%
    14:00 -4°C° 0.1 mm 6 mps 677 mmHg 92%
    15:00 -5°C° 0.1 mm 6 mps 678 mmHg 91%
    16:00 -6°C° 0.1 mm 6 mps 679 mmHg 90%
    17:00 -8°C° 0.1 mm 6 mps 680 mmHg 91%
    18:00 -9°C° 0.1 mm 6 mps 680 mmHg 91%
    19:00 -10°C° 0.1 mm 6 mps 681 mmHg 91%
    20:00 -10°C° 0.1 mm 6 mps 682 mmHg 90%
    21:00 -11°C° 0.1 mm 6 mps 683 mmHg 90%
    22:00 -12°C° 0.1 mm 6 mps 683 mmHg 90%
    23:00 -12°C° 0.1 mm 6 mps 684 mmHg 89%

    21 October, Sunday

    Time Temperature Precipitation Wind Pressure Humidity
    00:00 -14°C° 0.1 mm 6 mps 684 mmHg 89%
    01:00 -14°C° 0.1 mm 6 mps 685 mmHg 89%
    02:00 -15°C° 0.1 mm 6 mps 686 mmHg 89%
    03:00 -15°C° 0.1 mm 6 mps 686 mmHg 89%
    04:00 -16°C° 0.1 mm 6 mps 687 mmHg 89%
    05:00 -16°C° 0 mm 6 mps 687 mmHg 89%
    06:00 -17°C° 0 mm 6 mps 688 mmHg 89%
    07:00 -18°C° 0 mm 5 mps 688 mmHg 90%
    08:00 -17°C° 0 mm 6 mps 689 mmHg 88%
    09:00 -16°C° 0 mm 6 mps 689 mmHg 87%
    10:00 -15°C° 0 mm 6 mps 689 mmHg 85%
    11:00 -14°C° 0 mm 6 mps 690 mmHg 85%
    12:00 -14°C° 0 mm 6 mps 690 mmHg 84%
    13:00 -12°C° 0 mm 6 mps 690 mmHg 83%
    14:00 -12°C° 0 mm 6 mps 690 mmHg 83%
    15:00 -13°C° 0 mm 5 mps 690 mmHg 83%
    16:00 -13°C° 0 mm 5 mps 690 mmHg 84%
    17:00 -14°C° 0 mm 4 mps 690 mmHg 87%
    18:00 -15°C° 0 mm 4 mps 690 mmHg 90%
    19:00 -15°C° 0 mm 3 mps 690 mmHg 93%
    20:00 -16°C° 0 mm 3 mps 690 mmHg 93%
    21:00 -16°C° 0 mm 2 mps 690 mmHg 94%
    22:00 -16°C° 0 mm 2 mps 690 mmHg 95%
    23:00 -16°C° 0 mm 2 mps 690 mmHg 94%

    22 October, Monday

    Time Temperature Precipitation Wind Pressure Humidity
    00:00 -17°C° 0 mm 2 mps 691 mmHg 94%
    01:00 -17°C° 0 mm 2 mps 691 mmHg 93%
    02:00 -17°C° 0 mm 2 mps 691 mmHg 93%
    03:00 -17°C° 0 mm 2 mps 691 mmHg 92%
    04:00 -15°C° 0 mm 1 mps 691 mmHg 92%
    05:00 -14°C° 0 mm 1 mps 692 mmHg 93%
    06:00 -14°C° 0 mm 1 mps 692 mmHg 93%
    07:00 -14°C° 0 mm 1 mps 693 mmHg 93%
    08:00 -12°C° 0 mm 1 mps 693 mmHg 91%
    09:00 -10°C° 0 mm 1 mps 694 mmHg 88%
    10:00 -8°C° 0 mm 1 mps 694 mmHg 85%
    11:00 -7°C° 0 mm 1 mps 694 mmHg 83%
    12:00 -7°C° 0 mm 2 mps 694 mmHg 82%
    13:00 -6°C° 0 mm 2 mps 694 mmHg 80%
    14:00 -7°C° 0 mm 2 mps 694 mmHg 82%
    15:00 -6°C° 0 mm 1 mps 695 mmHg 83%
    16:00 -6°C° 0 mm 1 mps 695 mmHg 85%
    17:00 -7°C° 0 mm 2 mps 695 mmHg 86%
    18:00 -8°C° 0 mm 2 mps 695 mmHg 88%
    19:00 -10°C° 0 mm 3 mps 695 mmHg 89%
    20:00 -10°C° 0 mm 3 mps 695 mmHg 90%
    21:00 -10°C° 0 mm 4 mps 695 mmHg 90%
    22:00 -10°C° 0 mm 4 mps 695 mmHg 90%
    23:00 -10°C° 0.1 mm 4 mps 694 mmHg 91%

    23 October, Tuesday

    Time Temperature Precipitation Wind Pressure Humidity
    00:00 -9°C° 0.1 mm 4 mps 694 mmHg 92%
    01:00 -9°C° 0.1 mm 4 mps 694 mmHg 93%
    02:00 -9°C° 0.1 mm 4 mps 694 mmHg 93%
    03:00 -8°C° 0.1 mm 4 mps 694 mmHg 93%
    04:00 -8°C° 0.1 mm 4 mps 694 mmHg 93%
    05:00 -8°C° 0.1 mm 4 mps 693 mmHg 93%
    06:00 -8°C° 0.1 mm 4 mps 693 mmHg 93%
    07:00 -8°C° 0.1 mm 4 mps 693 mmHg 94%
    08:00 -7°C° 0.1 mm 4 mps 693 mmHg 93%
    09:00 -5°C° 0.1 mm 4 mps 693 mmHg 92%
    10:00 -5°C° 0.1 mm 4 mps 693 mmHg 91%
    11:00 -4°C° 0 mm 4 mps 693 mmHg 91%
    12:00 -4°C° 0 mm 4 mps 693 mmHg 91%
    13:00 -2°C° 0 mm 3 mps 693 mmHg 92%
    14:00 -4°C° 0 mm 3 mps 693 mmHg 91%
    15:00 -3°C° 0 mm 2 mps 694 mmHg 91%
    16:00 -3°C° 0 mm 2 mps 694 mmHg 90%
    17:00 -4°C° 0 mm 2 mps 694 mmHg 91%
    18:00 -3°C° 0 mm 1 mps 694 mmHg 93%
    19:00 -3°C° 0 mm 1 mps 695 mmHg 94%
    20:00 -4°C° 0 mm 1 mps 695 mmHg 94%
    21:00 -4°C° 0 mm 1 mps 695 mmHg 94%
    22:00 -4°C° 0 mm 1 mps 695 mmHg 94%
    23:00 -6°C° 0 mm 1 mps 695 mmHg 94%
    Show more